Medicine Hat, Alberta

7:53 AM MDT on July 27, 2017 (GMT -0600)
Medicine Hat

Weather History for CYXH - September, 2013

Change the Weather History Date:

Thursday, September 12, 2013

  Actual Average Record
Temperature  
Mean Temperature 51 °F -  
Max Temperature 82 °F 65 °F 86 °F (2015)
Min Temperature 20 °F 38 °F 18 °F (2012)
Degree Days  
Heating Degree Days 14    
Growing Degree Days 1 (Base 50)    
Moisture  
Dew Point 44 °F    
Average Humidity 61    
Maximum Humidity 100    
Minimum Humidity 23    
Precipitation  
Precipitation 0.00 in 0.04 in - ()
Sea Level Pressure  
Sea Level Pressure 30.14 in    
Wind  
Wind Speed 6 mph ()    
Max Wind Speed 21 mph    
Max Gust Speed -    
Visibility 9.0 miles    
Events      
Averages and records for this station are not official NWS values.
T = Trace of Precipitation, MM = Missing Value Source: Averaged Metar Reports

Daily Weather History Graph

Daily Weather History Graph

Search for Another Location

Airport or City:

Trip Planner

Search our weather history database for the weather conditions in past years. The results will help you decide how hot, cold, wet, or windy it might be!

Date:

Astronomy

Sep. 12, 2013 Rise Set
Actual Time 6:54 AM MDT 7:42 PM MDT
Civil Twilight 6:22 AM MDT 8:14 PM MDT
Nautical Twilight 5:42 AM MDT 8:53 PM MDT
Astronomical Twilight 5:01 AM MDT 9:35 PM MDT
Moon 3:04 PM MDT (9/12) No Moon Set
Length of Visible Light 13h 52m
Length of Day
12h 47m
Waxing Crescent, 51% of the Moon is Illuminated
Sep 12
Waxing Crescent
Sep 19
Full
Sep 26
Last Quarter
Oct 4
New
Oct 11
First Quarter

Hourly Weather History & Observations

Time (MDT) Temp. Dew Point Humidity Pressure Visibility Wind Dir Wind Speed Gust Speed Precip Events Conditions
12:00 AM 22 °F 22 °F 100% 29.89 in - NNW 19.6 mph - -  
12:00 AM 57.2 °F 48.2 °F 72% 30.27 in 9.0 mi East 3.5 mph - N/A   Clear
1:00 AM 57.2 °F 48.2 °F 72% 30.27 in 9.0 mi Calm Calm - N/A   Clear
2:00 AM 53.6 °F 48.2 °F 82% 30.27 in 9.0 mi ENE 2.3 mph - N/A   Clear
3:00 AM 51.8 °F 48.2 °F 88% 30.27 in 9.0 mi Variable 2.3 mph - N/A   Clear
4:00 AM 51.8 °F 48.2 °F 88% 30.27 in 9.0 mi Calm Calm - N/A   Clear
5:00 AM 51.8 °F 48.2 °F 88% 30.26 in 9.0 mi Calm Calm - N/A   Clear
6:00 AM 22 °F 21 °F 95% 29.93 in - NNW 20.7 mph - -  
6:00 AM 51.8 °F 48.2 °F 88% 30.25 in 9.0 mi East 2.3 mph - N/A   Clear
7:00 AM 51.8 °F 46.4 °F 82% 30.25 in 30.0 mi North 2.3 mph - N/A   Clear
8:00 AM 53.6 °F 51.8 °F 94% 30.26 in 30.0 mi North 2.3 mph - N/A   Clear
9:00 AM 59.0 °F 48.2 °F 67% 30.25 in 30.0 mi NNE 2.3 mph - N/A   Clear
10:00 AM 66.2 °F 46.4 °F 49% 30.25 in 30.0 mi North 2.3 mph - N/A   Clear
11:00 AM 73.4 °F 48.2 °F 41% 30.22 in 30.0 mi Calm Calm - N/A   Clear
12:00 PM 21 °F 20 °F 94% 29.94 in - NNW 19.6 mph - -  
12:00 PM 77.0 °F 48.2 °F 36% 30.19 in 30.0 mi ESE 4.6 mph - N/A   Clear
1:00 PM 78.8 °F 44.6 °F 30% 30.17 in 30.0 mi ESE 4.6 mph - N/A   Clear
2:00 PM 80.6 °F 44.6 °F 28% 30.14 in 30.0 mi East 4.6 mph - N/A   Clear
3:00 PM 82.4 °F 44.6 °F 26% 30.12 in 30.0 mi South 12.7 mph - N/A   Clear
4:00 PM 82.4 °F 44.6 °F 26% 30.09 in 30.0 mi South 9.2 mph - N/A   Clear
5:00 PM 82.4 °F 41.0 °F 23% 30.07 in 30.0 mi SE 11.5 mph - N/A   Clear
6:00 PM 82.4 °F 41.0 °F 23% 30.05 in 30.0 mi SSE 10.4 mph - N/A   Clear
7:00 PM 77.0 °F 44.6 °F 32% 30.04 in 30.0 mi SSE 6.9 mph - N/A   Clear
8:00 PM 69.8 °F 46.4 °F 43% 30.04 in 30.0 mi SE 5.8 mph - N/A   Clear
9:00 PM 66.2 °F 46.4 °F 49% 30.03 in 30.0 mi ESE 3.5 mph - N/A   Clear
10:00 PM 66.2 °F 48.2 °F 52% 30.01 in 9.0 mi ESE 3.5 mph - N/A   Clear
11:00 PM 60.8 °F 50.0 °F 68% 29.99 in 9.0 mi NNE 4.6 mph - N/A   Clear